Location: F?ge?el
(45.8833°N, 22.5833°E)
Time: 13:12:12
(UTC+00:00)

Cosmos 1943 Rocket - Pass Details

Date: 17 November 2025
Orbit: 812 x 841 km, 71.0° (Epoch: 11 December)

Event Time Altitude Azimuth Distance (km) Brightness Sun altitude
Rises 17:43:24 0° 245° (WSW) 3,375 6.3 -28.9°
Reaches altitude 10° 17:46:19 10° 258° (WSW) 2,440 5.5 -29.4°
Maximum altitude 17:50:48 24° 312° (NW) 1,655 4.1 -30.2°
Enters shadow 17:54:12 14° 357° (N) 2,143 4.3 -30.8°
